This is the latest recevied weather packets stored in our database for station/object CE4ERM-13. If no packets are shown the sender has not sent any weather packets the latest 10 day(s).
| Time | Temp. | Humidity | Pressure | Rain* | Wind** | Luminosity | Snow |
|---|---|---|---|---|---|---|---|
| 1788140855 | 70° F | 37% | 766 mmHg | - | - | - | - |
| 1788140255 | 68° F | 39% | 766.3 mmHg | - | - | - | - |
| 1788139654 | 69° F | 40% | 764.8 mmHg | - | - | - | - |
| 1788139054 | 68° F | 39% | 765.7 mmHg | - | - | - | - |
| 1788138501 | 67° F | 37% | 765.5 mmHg | - | - | - | - |
| 1788138454 | 67° F | 37% | 765.5 mmHg | - | - | - | - |
| 1788137852 | 69° F | 35% | 765.6 mmHg | - | - | - | - |
| 1788137251 | 69° F | 36% | 765.4 mmHg | - | - | - | - |
| 1788136049 | 68° F | 36% | 764.8 mmHg | - | - | - | - |
| 1788135449 | 67° F | 38% | 764.1 mmHg | - | - | - | - |
| 1788134849 | 69° F | 37% | 764.8 mmHg | - | - | - | - |
| 1788134249 | 70° F | 39% | 764.2 mmHg | - | - | - | - |
| 1788133649 | 69° F | 40% | 764.5 mmHg | - | - | - | - |
| 1788133049 | 70° F | 39% | 763.9 mmHg | - | - | - | - |
| 1788132449 | 71° F | 42% | 765.5 mmHg | - | - | - | - |
| 1788131248 | 70° F | 46% | 765.1 mmHg | - | - | - | - |
| 1788130648 | 71° F | 45% | 765 mmHg | - | - | - | - |
| 1788130048 | 71° F | 47% | 764 mmHg | - | - | - | - |
| 1788129447 | 71° F | 46% | 763.7 mmHg | - | - | - | - |
| 1788128847 | 73° F | 43% | 763.9 mmHg | - | - | - | - |
| 1788128247 | 73° F | 41% | 764 mmHg | - | - | - | - |
| 1788127775 | 72° F | 41% | 764.4 mmHg | - | - | - | - |
| 1788127647 | 72° F | 41% | 764.4 mmHg | - | - | - | - |
| 1788127047 | 72° F | 40% | 764.6 mmHg | - | - | - | - |
| 1788126446 | 73° F | 39% | 763.8 mmHg | - | - | - | - |
* Rain since midnight (hover to see other rain measurements)
** Current wind speed in m/s (hover to see current wind gust speed)